Location: Falniów
(50.3639°N, 19.9642°E)
Time: 09:53:48
(UTC+00:00)

Cosmos 1703 Rocket - Pass Details

Date: 18 January 2026
Orbit: 599 x 625 km, 82.5° (Epoch: 19 February)

Event Time Altitude Azimuth Distance (km) Brightness Sun altitude
Rises 05:34:17 0° 347° (NNW) 2,861 6.6 -9.0°
Reaches altitude 10° 05:36:31 10° 345° (NNW) 1,954 5.8 -8.7°
Maximum altitude 05:40:48 67° 263° (W) 656 3.5 -8.1°
Drops below altitude 10° 05:45:04 10° 181° (S) 1,948 6.4 -7.4°
Sets 05:47:17 0° 179° (S) 2,850 7.3 -7.1°
